Regional Weather Roundup
Issued by NWS

Home | Current Version | Previous Version | Text Only | Print | Product List | Glossary On
Versions: 1 2 3 4 5 6 7 8 9 10 11 12 13 14 15 16 17 18 19 20 21 22 23 24 25 26 27 28 29 30 31 32 33 34 35 36 37 38 39 40 41 42 43 44 45 46 47 48 49 50
000
ASUS44 KJAN 020810
RWRMS

MISSISSIPPI HOURLY WEATHER ROUNDUP
NATIONAL WEATHER SERVICE JACKSON MS
300 AM CDT THU APR 02 2015

NOTE: "FAIR: INDICATES FEW OR NO CLOUDS BELOW 12,000 FEET WITH NO
SIGNIFICANT WEATHER AND/OR OBSTRUCTIONS TO VISIBILITY.

MSZ001>002-007>008-010>013-018>021-025>028-034>036-020900-
NORTHWEST MISSISSIPPI

CITY           SKY/WX    TMP DP  RH WIND       PRES   REMARKS
CLARKSDALE       N/A     66  63  88 S12       29.96F
CLEVELAND      PTSUNNY   67  63  87 S10       29.96F
GREENWOOD      MOCLDY    66  59  78 S9        29.99F
GREENVILLE     CLOUDY    68  61  78 S9        29.96F
OLIVE BRANCH   PTCLDY    64  63  94 S10       29.94F
OXFORD         FAIR      64  57  77 S8        29.99F
TUNICA         CLOUDY    66  59  77 S12       29.95S
$$

MSZ003>006-009-014>017-022>024-029>033-037>039-020900-
NORTHEAST MISSISSIPPI

CITY           SKY/WX    TMP DP  RH WIND       PRES   REMARKS
COLUMBUS AFB   MOCLDY    65  59  82 S6        30.02R
CORINTH        FAIR      64  59  82 S8        29.97F
GOLDN TRIANGLE MOCLDY    64  57  77 S9        30.02S
STARKVILLE     FAIR      64  61  88 S5        30.03S
TUPELO         PTCLDY    62  57  83 SW8       30.00S
$$

MSZ040-058-020900-
CENTRAL MISSISSIPPI

CITY           SKY/WX    TMP DP  RH WIND       PRES   REMARKS
JACKSON INTL   CLOUDY    68  63  84 S7        30.02S
JACKSON HAWKNS CLOUDY    68  62  81 S9        30.02S
MERIDIAN KEY   CLOUDY    64  62  93 S7        30.05S
MERIDIAN NAS   CLOUDY    68  63  84 SW6       30.05S
RAYMOND        FAIR      68  64  88 S5        30.02R
VICKSBURG      CLOUDY    68  62  81 S7        30.00S
$$

MSZ059>079-020900-
SOUTH MISSISSIPPI

CITY           SKY/WX    TMP DP  RH WIND       PRES   REMARKS
BROOKHAVEN       N/A     68  66  94 S7        30.04F
HATTIESBURG    CLOUDY    68  67  96 SE3       30.06S
MCCOMB         CLOUDY    66  64  93 S3        30.04S
NATCHEZ        CLOUDY    70  63  78 S7        30.01F
PINE BELT      CLOUDY    68  64  88 S7        30.06S
$$

MSZ080>082-020900-
COASTAL MISSISSIPPI

CITY           SKY/WX    TMP DP  RH WIND       PRES   REMARKS
BILOXI         CLOUDY    72  72  99 S10       30.05S
PASCAGOULA     CLOUDY    72  68  87 S7        30.06S
GULFPORT       CLOUDY    72  69  90 S7        30.04F
$$


USA.gov is the U.S. government's official web portal to all federal, state and local government web resources and services.